Location: Unspecified
(0.0000°N, 0.0000°E)
Time: 14:28:14
(UTC+00:00)

Courier 1B - Pass Details

Date: 17 February 2026
Orbit: 962 x 1208 km, 28.3° (Epoch: 16 March)

Event Time Altitude Azimuth Distance (km) Brightness Sun altitude
Exits shadow 04:26:32 56° 273° (W) 1,329 7.8 -26.2°
Maximum altitude 04:28:10 73° 211° (SSW) 1,168 7.7 -25.8°
Drops below altitude 10° 04:35:18 10° 127° (SE) 2,898 10.9 -24.1°
Sets 04:37:58 0° 125° (SE) 3,817 11.8 -23.5°
